#timestamp,LO_Frequency,Hit 
1501275615.7,286047028.3,N
1501275635.5,286047026.9,N
1501275655.3,286047025.9,N
1501275675.1,286047026.6,N
1501275695.9,286047028.3,N
1501275715.7,286047025.4,N
1501275735.5,286047029.1,N
1501275755.4,286047029.7,N
1501275775.2,286047026.4,N
1501275795.0,286047026.6,N
1501275795.9,286047026.6,N
1501275815.8,286047028.9,N
1501275835.6,286047026.2,N
1501275855.4,286047023.9,N
1501275875.3,286047026.2,N
1501275895.1,286047026.0,N
1501275896.0,286047026.0,N
1501275915.8,286047024.2,N
1501275935.7,286047027.5,N
1501275955.5,286047027.3,N
1501275975.3,286047027.5,N
1501275995.2,286047027.9,N
1501276015.9,286047023.7,N
1501276035.7,286047024.2,N
1501276055.5,286047026.5,N
1501276075.4,286047024.2,N
1501276095.2,286047024.1,N
1501276115.0,286047023.9,N
1501276115.9,286047023.9,N
1501276135.8,286047025.0,N
1501276155.6,286047025.1,N
1501276175.4,286047020.9,N
1501276195.3,286047019.9,N
1501276215.1,286047019.8,N
1501276216.0,286047019.8,N
1501276235.8,286047020.1,N
1501276255.7,286047020.5,N
1501276275.5,286047019.5,N
1501276295.3,286047019.4,N
1501276315.2,286047017.7,N
1501276335.9,286047018.8,N
1501276355.7,286047018.3,N
1501276375.5,286047018.7,N
1501276395.4,286047017.0,N
1501276415.2,286047014.6,N
1501276435.0,286047015.4,N
1501276435.9,286047015.4,N
1501276455.8,286047015.2,N
1501276475.6,286047014.4,N
1501276495.4,286047011.5,N
1501276515.3,286047014.3,N
1501276535.1,286047013.4,N
1501276536.0,286047013.4,N
1501276555.8,286047014.4,N
1501276575.7,286047018.4,N
1501276595.5,286047016.6,N
1501276615.3,286047014.4,N
1501276635.2,286047013.7,N
1501276655.9,286047010.5,N
1501276675.7,286047013.2,N
1501276695.6,286047014.1,N
1501276715.4,286047018.6,N
1501276735.2,286047018.4,N
1501276755.0,286047016.0,N
1501276755.9,286047016.0,N
1501276775.8,286047018.1,N
1501276795.6,286047020.4,N
1501276815.4,286047019.0,N
1501276835.3,286047022.0,N
1501276855.1,286047020.2,N
1501276856.0,286047020.2,N
1501276875.8,286047019.1,N
1501276895.7,286047017.4,N
1501276915.5,286047019.6,N
1501276935.3,286047021.1,N
1501276955.2,286047021.3,N
1501276975.9,286047021.4,N
1501276995.7,286047022.6,N
1501277015.5,286047023.9,N
1501277035.4,286047023.0,N
1501277055.2,286047023.3,N
1501277075.0,286047021.4,N
1501277075.9,286047021.4,N
1501277095.8,286047020.6,N
1501277115.6,286047024.0,N
1501277135.4,286047024.0,N
1501277155.3,286047022.4,N
1501277175.1,286047022.9,N
1501277176.0,286047022.9,N
1501277195.8,286047024.4,N
1501277215.7,286047023.9,N
1501277235.5,286047026.3,N
1501277255.3,286047026.5,N
1501277275.2,286047026.8,N
1501277295.9,286047026.6,N
1501277315.7,286047024.1,N
1501277335.5,286047024.5,N
1501277355.4,286047025.0,N
1501277375.2,286047024.6,N
1501277395.0,286047023.7,N
1501277395.9,286047023.7,N
1501277415.8,286047022.2,N
1501277435.6,286047022.4,N
1501277455.4,286047020.6,N
1501277475.3,286047020.5,N
1501277495.1,286047026.2,N
1501277496.0,286047026.2,N
1501277515.8,286047022.8,N
1501277535.7,286047023.1,N
1501277555.5,286047022.9,N
1501277575.3,286047025.1,N
1501277595.2,286047025.0,N
1501277615.9,286047024.0,N
1501277635.7,286047022.4,N
1501277655.5,286047022.5,N
1501277675.4,286047026.5,N
1501277695.2,286047027.9,N
1501277715.0,286047029.2,N
1501277715.9,286047029.2,N
1501277735.8,286047025.4,N
1501277755.6,286047025.3,N
1501277775.4,286047026.2,N
1501277795.3,286047025.8,N
1501277815.1,286047026.2,N
1501277835.8,286047025.4,N
1501277855.7,286047025.6,N
1501277875.5,286047026.5,N
1501277895.3,286047025.9,N
1501277915.2,286047026.4,N
1501277935.9,286047024.9,N
1501277955.7,286047023.4,N
1501277975.5,286047022.1,N
1501277995.4,286047023.4,N
1501278015.2,286047024.9,N
1501278035.0,286047024.5,N
1501278035.9,286047024.5,N
1501278055.8,286047022.4,N
1501278075.6,286047024.8,Y
1501278095.4,286047000.3,N
1501278115.3,286047002.4,N
1501278135.1,286047000.8,N
1501278155.8,286046998.6,N
1501278175.7,286047002.8,N
1501278195.5,286047001.6,N
1501278215.3,286047001.4,N
1501278235.2,286047003.2,N
1501278255.9,286047006.7,N
1501278275.7,286047006.9,N
1501278295.6,286047006.3,N
1501278315.4,286047008.9,N
1501278335.2,286047008.2,N
1501278355.0,286047008.6,N
1501278356.0,286047008.6,N
1501278375.8,286047006.7,N
1501278395.6,286047005.0,N
1501278415.4,286047005.2,N
1501278435.3,286047004.1,N
1501278455.1,286047003.8,N
1501278475.8,286047004.2,N
1501278495.7,286047002.7,N
1501278515.5,286047004.4,N
1501278535.3,286047001.5,N
1501278555.2,286047000.6,N
1501278575.9,286046996.5,N
1501278595.7,286046997.7,N
1501278615.6,286046997.2,N
1501278635.4,286046997.2,N
1501278655.2,286046999.2,N
1501278675.0,286046996.9,N
1501278675.9,286046996.9,N
1501278695.8,286046995.1,N
1501278715.6,286046995.9,N
1501278735.4,286046996.3,N
1501278755.3,286046996.3,N
1501278775.1,286046996.2,N
1501278776.0,286046996.2,N
1501278795.8,286046996.2,N
1501278815.7,286046993.3,N
1501278835.5,286046994.4,N
1501278855.3,286046991.7,N
1501278875.2,286046990.5,N
1501278895.9,286046993.2,N
1501278915.7,286046990.5,N
1501278935.5,286046992.6,N
1501278955.4,286046993.6,N
1501278975.2,286046996.2,N
1501278995.0,286046999.2,N
1501278995.9,286046999.2,N
1501279015.8,286046999.0,N
1501279035.6,286046998.6,N
1501279055.4,286047000.7,N
1501279075.3,286047002.4,N
1501279095.1,286046998.7,N
1501279096.0,286046998.7,N
1501279115.8,286046999.5,N
1501279135.7,286047000.5,N
1501279155.5,286047002.4,N
1501279175.3,286047000.0,N
1501279195.2,286047000.0,N
